Chippewa, MI

10:18 PM EST on December 11, 2019 (GMT -0500)
Chippewa County International

Weather History for KCIU - October, 2019

Change the Weather History Date:

Tuesday, October 15, 2019

  Actual Average Record
Temperature  
Mean Temperature 38 °F -  
Max Temperature 45 °F 52 °F 64 °F (2016)
Min Temperature 32 °F 34 °F 18 °F (1978)
Degree Days  
Heating Degree Days 26    
Moisture  
Dew Point 38 °F    
Average Humidity 91    
Maximum Humidity 100    
Minimum Humidity 76    
Precipitation  
Precipitation 0.68 in - - ()
Sea Level Pressure  
Sea Level Pressure 29.92 in    
Wind  
Wind Speed 5 mph ()    
Max Wind Speed 15 mph    
Max Gust Speed -    
Visibility 9.9 miles    
Events Rain    
Averages and records for this station are not official NWS values.
T = Trace of Precipitation, MM = Missing Value Source: Averaged Metar Reports

Daily Weather History Graph

Daily Weather History Graph

Search for Another Location

Airport or City:

Astronomy

Oct. 15, 2019 Rise Set
Actual Time 7:54 AM EDT 6:51 PM EDT
Civil Twilight 7:24 AM EDT 7:22 PM EDT
Nautical Twilight 6:49 AM EDT 7:56 PM EDT
Astronomical Twilight 6:14 AM EDT 8:31 PM EDT
Moon 8:07 PM EDT (10/15) 9:27 AM EDT (10/15)
Length of Visible Light 11h 57m
Length of Day
10h 57m
Full, 97% of the Moon is Illuminated
Oct 15
Full
Oct 21
Last Quarter
Oct 27
New
Nov 4
First Quarter
Nov 12
Full

Hourly Weather History & Observations

Time (EDT) Temp. Windchill Dew Point Humidity Pressure Visibility Wind Dir Wind Speed Gust Speed Precip Events Conditions
12:56 AM 37.0 °F 33.3 °F 35.1 °F 93% 30.02 in 10.0 mi SSE 4.6 mph - N/A   Overcast
1:56 AM 37.0 °F 32.4 °F 35.1 °F 93% 30.02 in 10.0 mi SSE 5.8 mph - N/A   Overcast
2:56 AM 37.9 °F - 33.1 °F 83% 30.03 in 10.0 mi Calm Calm - N/A   Overcast
3:56 AM 37.0 °F - 33.1 °F 86% 30.03 in 10.0 mi Calm Calm - N/A   Overcast
4:56 AM 37.0 °F - 33.1 °F 86% 30.02 in 10.0 mi Calm Calm - N/A   Overcast
5:56 AM 35.1 °F 32.2 °F 32.0 °F 89% 30.01 in 10.0 mi SSW 3.5 mph - N/A   Partly Cloudy
6:56 AM 35.1 °F - 32.0 °F 89% 30.02 in 10.0 mi Calm Calm - N/A   Clear
7:56 AM 32.0 °F 27.5 °F 30.0 °F 92% 30.01 in 10.0 mi South 4.6 mph - N/A   Clear
8:56 AM 37.9 °F 34.4 °F 33.1 °F 83% 30.00 in 10.0 mi South 4.6 mph - N/A   Partly Cloudy
9:56 AM 43.0 °F 39.5 °F 36.0 °F 76% 29.99 in 10.0 mi SSE 5.8 mph - N/A   Overcast
10:56 AM 44.1 °F 39.5 °F 39.9 °F 85% 29.99 in 10.0 mi SSE 8.1 mph - 0.00 in Rain Light Rain
11:56 AM 43.0 °F 39.5 °F 41.0 °F 93% 29.98 in 10.0 mi SSE 5.8 mph - 0.00 in Rain Light Rain
12:56 PM 44.1 °F 41.5 °F 42.1 °F 93% 29.98 in 10.0 mi ESE 4.6 mph - 0.00 in   Overcast
1:56 PM 45.0 °F 41.2 °F 42.1 °F 90% 29.95 in 10.0 mi East 6.9 mph - N/A   Overcast
2:56 PM 45.0 °F 40.6 °F 39.9 °F 82% 29.93 in 10.0 mi SSE 8.1 mph - 0.00 in Rain Light Rain
3:10 PM 44.6 °F 40.7 °F 41.0 °F 87% 29.90 in 10.0 mi SSE 6.9 mph - 0.01 in Rain Light Rain
3:19 PM 42.8 °F 38.0 °F 41.0 °F 93% 29.90 in 10.0 mi SSE 8.1 mph - 0.02 in Rain Light Rain
3:56 PM 43.0 °F 37.7 °F 41.0 °F 93% 29.92 in 8.0 mi ESE 9.2 mph - 0.05 in Rain Light Rain
4:56 PM 42.1 °F 37.1 °F 41.0 °F 96% 29.90 in 10.0 mi East 8.1 mph - 0.02 in Rain Light Rain
5:56 PM 42.1 °F 35.2 °F 41.0 °F 96% 29.87 in 10.0 mi East 12.7 mph - 0.03 in Rain Light Rain
6:24 PM 41.0 °F 35.2 °F 41.0 °F 100% 29.85 in 8.0 mi East 9.2 mph - 0.05 in Rain Light Rain
6:56 PM 41.0 °F 35.2 °F 39.9 °F 96% 29.86 in 10.0 mi ESE 9.2 mph - 0.08 in Rain Light Rain
7:56 PM 42.1 °F 35.2 °F 41.0 °F 96% 29.83 in 10.0 mi East 12.7 mph - 0.02 in Rain Light Rain
8:56 PM 42.1 °F 35.7 °F 41.0 °F 96% 29.81 in 10.0 mi ENE 11.5 mph - 0.04 in Rain Rain
9:39 PM 42.8 °F 36.2 °F 42.8 °F 100% 29.76 in 10.0 mi ENE 12.7 mph - 0.15 in Rain Rain
9:56 PM 43.0 °F 36.4 °F 42.1 °F 97% 29.78 in 10.0 mi East 12.7 mph - 0.22 in Rain Rain
10:56 PM 43.0 °F 36.0 °F 42.1 °F 97% 29.75 in 10.0 mi NE 13.8 mph - 0.20 in Rain Light Rain
11:56 PM 43.0 °F 35.7 °F 42.1 °F 97% 29.74 in 10.0 mi ENE 15.0 mph - 0.02 in Rain Light Rain